Time,TemperatureF,DewpointF,PressureIn,WindDirection,WindDirectionDegrees,WindSpeedMPH,WindSpeedGustMPH,Humidity,HourlyPrecipIn,Conditions,Clouds,dailyrainin,SoftwareType,DateUTC
2013-01-15 00:02:00,29.5,21.9,29.97,East,98,2.0,3.0,73,0.00,,,0.00,Wunderground v.1.15,2013-01-15 09:02:00,
2013-01-15 00:08:00,29.4,22.1,29.98,SSW,192,2.0,5.0,74,0.00,,,0.00,Wunderground v.1.15,2013-01-15 09:08:00,
2013-01-15 00:14:00,29.3,22.0,29.98,South,188,2.0,2.0,74,0.00,,,0.00,Wunderground v.1.15,2013-01-15 09:14:00,
2013-01-15 00:20:00,29.3,21.7,29.98,SE,128,2.0,3.0,73,0.00,,,0.00,Wunderground v.1.15,2013-01-15 09:20:00,
2013-01-15 00:26:00,29.3,21.1,29.98,WSW,238,2.0,3.0,71,0.00,,,0.00,Wunderground v.1.15,2013-01-15 09:26:00,
2013-01-15 00:32:00,29.2,20.6,29.98,West,280,1.0,9.0,70,0.00,,,0.00,Wunderground v.1.15,2013-01-15 09:32:00,
2013-01-15 00:38:00,29.1,20.2,29.99,SE,132,1.0,9.0,69,0.00,,,0.00,Wunderground v.1.15,2013-01-15 09:38:00,
2013-01-15 00:44:00,29.0,19.8,29.99,SE,143,1.0,9.0,68,0.00,,,0.00,Wunderground v.1.15,2013-01-15 09:44:00,
2013-01-15 00:50:00,29.0,19.8,30.00,ESE,115,2.0,9.0,68,0.00,,,0.00,Wunderground v.1.15,2013-01-15 09:50:00,
2013-01-15 00:56:00,29.0,20.1,30.00,SSE,167,2.0,9.0,69,0.00,,,0.00,Wunderground v.1.15,2013-01-15 09:56:00,
2013-01-15 01:01:00,28.9,20.0,30.00,SSE,156,3.0,3.0,69,0.00,,,0.00,Wunderground v.1.15,2013-01-15 10:01:00,
2013-01-15 01:07:00,28.8,19.9,30.00,SSW,210,2.0,5.0,69,0.00,,,0.00,Wunderground v.1.15,2013-01-15 10:07:00,
2013-01-15 01:13:00,28.8,19.9,30.00,SE,126,2.0,3.0,69,0.00,,,0.00,Wunderground v.1.15,2013-01-15 10:13:00,
2013-01-15 01:19:00,28.8,20.2,30.00,ENE,65,2.0,8.0,70,0.00,,,0.00,Wunderground v.1.15,2013-01-15 10:19:00,
2013-01-15 01:24:00,28.7,20.5,30.00,SSE,165,2.0,3.0,71,0.00,,,0.00,Wunderground v.1.15,2013-01-15 10:24:00,
2013-01-15 01:29:00,28.6,20.4,30.00,South,178,2.0,3.0,71,0.00,,,0.00,Wunderground v.1.15,2013-01-15 10:29:00,
2013-01-15 01:35:00,28.6,20.1,30.00,SE,128,2.0,9.0,70,0.00,,,0.00,Wunderground v.1.15,2013-01-15 10:35:00,
2013-01-15 01:41:00,28.6,20.1,30.00,SSE,158,2.0,9.0,70,0.00,,,0.00,Wunderground v.1.15,2013-01-15 10:41:00,
2013-01-15 01:47:00,28.6,20.1,30.01,SSW,197,2.0,9.0,70,0.00,,,0.00,Wunderground v.1.15,2013-01-15 10:47:00,
2013-01-15 01:52:00,28.5,20.0,30.01,SSE,150,2.0,9.0,70,0.00,,,0.00,Wunderground v.1.15,2013-01-15 10:52:00,
2013-01-15 01:58:00,28.5,20.0,30.01,SSW,192,2.0,9.0,70,0.00,,,0.00,Wunderground v.1.15,2013-01-15 10:58:00,
2013-01-15 02:04:00,28.4,19.9,30.02,SSW,196,2.0,3.0,70,0.00,,,0.00,Wunderground v.1.15,2013-01-15 11:04:00,
2013-01-15 02:09:00,28.4,19.5,30.02,NE,46,2.0,3.0,69,0.00,,,0.00,Wunderground v.1.15,2013-01-15 11:09:00,
2013-01-15 02:15:00,28.3,19.8,30.02,SSE,159,2.0,2.0,70,0.00,,,0.00,Wunderground v.1.15,2013-01-15 11:15:00,
2013-01-15 02:20:00,28.2,19.7,30.02,SE,139,2.0,2.0,70,0.00,,,0.00,Wunderground v.1.15,2013-01-15 11:20:00,
2013-01-15 02:26:00,28.2,19.7,30.02,SW,216,2.0,4.0,70,0.00,,,0.00,Wunderground v.1.15,2013-01-15 11:26:00,
2013-01-15 02:32:00,28.3,20.1,30.02,South,180,2.0,9.0,71,0.00,,,0.00,Wunderground v.1.15,2013-01-15 11:32:00,
2013-01-15 02:38:00,28.3,19.8,30.02,SSW,206,2.0,9.0,70,0.00,,,0.00,Wunderground v.1.15,2013-01-15 11:38:00,
2013-01-15 02:44:00,28.1,19.9,30.02,SE,128,2.0,9.0,71,0.00,,,0.00,Wunderground v.1.15,2013-01-15 11:44:00,
2013-01-15 02:49:00,28.1,19.9,30.02,West,279,2.0,9.0,71,0.00,,,0.00,Wunderground v.1.15,2013-01-15 11:49:00,
2013-01-15 02:55:00,28.0,19.5,30.02,South,188,2.0,9.0,70,0.00,,,0.00,Wunderground v.1.15,2013-01-15 11:55:00,
2013-01-15 03:00:00,28.0,19.5,30.02,South,169,2.0,2.0,70,0.00,,,0.00,Wunderground v.1.15,2013-01-15 12:00:00,
2013-01-15 03:06:00,28.0,19.1,30.02,West,279,2.0,2.0,69,0.00,,,0.00,Wunderground v.1.15,2013-01-15 12:06:00,
2013-01-15 03:12:00,28.0,19.5,30.02,ESE,122,1.0,4.0,70,0.00,,,0.00,Wunderground v.1.15,2013-01-15 12:12:00,
2013-01-15 03:18:00,27.9,19.0,30.03,South,171,2.0,5.0,69,0.00,,,0.00,Wunderground v.1.15,2013-01-15 12:18:00,
2013-01-15 03:23:00,28.1,19.2,30.03,South,182,2.0,2.0,69,0.00,,,0.00,Wunderground v.1.15,2013-01-15 12:23:00,
2013-01-15 03:29:00,28.0,19.5,30.03,NNW,344,2.0,4.0,70,0.00,,,0.00,Wunderground v.1.15,2013-01-15 12:29:00,
2013-01-15 03:35:00,27.9,19.0,30.03,SE,134,1.0,7.0,69,0.00,,,0.00,Wunderground v.1.15,2013-01-15 12:35:00,
2013-01-15 03:41:00,28.0,18.8,30.03,SSE,156,2.0,7.0,68,0.00,,,0.00,Wunderground v.1.15,2013-01-15 12:41:00,
2013-01-15 03:47:00,28.0,18.8,30.03,SW,221,2.0,7.0,68,0.00,,,0.00,Wunderground v.1.15,2013-01-15 12:47:00,
2013-01-15 03:52:00,27.9,18.7,30.04,South,169,1.0,7.0,68,0.00,,,0.00,Wunderground v.1.15,2013-01-15 12:52:00,
2013-01-15 03:58:00,28.0,18.5,30.04,SSE,165,1.0,7.0,67,0.00,,,0.00,Wunderground v.1.15,2013-01-15 12:58:00,
2013-01-15 04:03:00,27.9,18.4,30.04,ESE,115,1.0,1.0,67,0.00,,,0.00,Wunderground v.1.15,2013-01-15 13:03:00,
2013-01-15 04:09:00,27.8,17.9,30.04,SE,134,1.0,2.0,66,0.00,,,0.00,Wunderground v.1.15,2013-01-15 13:09:00,
2013-01-15 04:15:00,27.8,17.6,30.04,SE,127,1.0,4.0,65,0.00,,,0.00,Wunderground v.1.15,2013-01-15 13:15:00,
2013-01-15 04:21:00,27.9,18.0,30.04,SE,129,2.0,2.0,66,0.00,,,0.00,Wunderground v.1.15,2013-01-15 13:21:00,
2013-01-15 04:27:00,28.0,18.1,30.04,SSE,153,2.0,5.0,66,0.00,,,0.00,Wunderground v.1.15,2013-01-15 13:27:00,
2013-01-15 04:33:00,28.0,18.5,30.05,SSE,165,2.0,8.0,67,0.00,,,0.00,Wunderground v.1.15,2013-01-15 13:33:00,
2013-01-15 04:38:00,27.9,18.7,30.05,ESE,107,1.0,8.0,68,0.00,,,0.00,Wunderground v.1.15,2013-01-15 13:38:00,
2013-01-15 04:44:00,28.0,18.8,30.05,SW,219,2.0,8.0,68,0.00,,,0.00,Wunderground v.1.15,2013-01-15 13:44:00,
2013-01-15 04:50:00,28.0,18.8,30.05,South,172,2.0,8.0,68,0.00,,,0.00,Wunderground v.1.15,2013-01-15 13:50:00,
2013-01-15 04:56:00,28.0,18.8,30.05,SSE,152,2.0,8.0,68,0.00,,,0.00,Wunderground v.1.15,2013-01-15 13:56:00,
2013-01-15 05:02:00,28.1,18.9,30.06,SSE,147,2.0,3.0,68,0.00,,,0.00,Wunderground v.1.15,2013-01-15 14:02:00,
2013-01-15 05:08:00,28.2,19.0,30.06,SSE,163,2.0,3.0,68,0.00,,,0.00,Wunderground v.1.15,2013-01-15 14:08:00,
2013-01-15 05:14:00,28.2,19.0,30.06,SW,214,2.0,2.0,68,0.00,,,0.00,Wunderground v.1.15,2013-01-15 14:14:00,
2013-01-15 05:19:00,28.2,19.3,30.06,SW,214,2.0,3.0,69,0.00,,,0.00,Wunderground v.1.15,2013-01-15 14:19:00,
2013-01-15 05:25:00,28.1,19.6,30.06,SSE,167,1.0,1.0,70,0.00,,,0.00,Wunderground v.1.15,2013-01-15 14:25:00,
2013-01-15 05:31:00,28.1,19.2,30.06,ESE,120,1.0,12.0,69,0.00,,,0.00,Wunderground v.1.15,2013-01-15 14:31:00,
2013-01-15 05:37:00,28.1,19.6,30.06,SSE,163,1.0,12.0,70,0.00,,,0.00,Wunderground v.1.15,2013-01-15 14:37:00,
2013-01-15 05:43:00,28.1,19.9,30.06,SE,146,1.0,12.0,71,0.00,,,0.00,Wunderground v.1.15,2013-01-15 14:43:00,
2013-01-15 05:48:00,28.1,19.9,30.06,SSW,205,2.0,12.0,71,0.00,,,0.00,Wunderground v.1.15,2013-01-15 14:48:00,
2013-01-15 05:54:00,28.1,19.9,30.07,SW,227,2.0,12.0,71,0.00,,,0.00,Wunderground v.1.15,2013-01-15 14:54:00,
2013-01-15 06:00:00,28.1,19.9,30.07,SW,220,1.0,1.0,71,0.00,,,0.00,Wunderground v.1.15,2013-01-15 15:00:00,
2013-01-15 06:06:00,28.0,19.8,30.07,South,188,1.0,1.0,71,0.00,,,0.00,Wunderground v.1.15,2013-01-15 15:06:00,
2013-01-15 06:12:00,27.9,20.0,30.07,South,188,1.0,1.0,72,0.00,,,0.00,Wunderground v.1.15,2013-01-15 15:12:00,
2013-01-15 06:17:00,27.8,20.3,30.07,South,178,0.0,1.0,73,0.00,,,0.00,Wunderground v.1.15,2013-01-15 15:17:00,
2013-01-15 06:23:00,27.6,20.4,30.07,SW,217,1.0,1.0,74,0.00,,,0.00,Wunderground v.1.15,2013-01-15 15:23:00,
2013-01-15 06:29:00,27.6,20.4,30.07,South,184,1.0,2.0,74,0.00,,,0.00,Wunderground v.1.15,2013-01-15 15:29:00,
2013-01-15 06:35:00,27.5,20.6,30.08,ESE,122,1.0,8.0,75,0.00,,,0.00,Wunderground v.1.15,2013-01-15 15:35:00,
2013-01-15 06:41:00,27.4,20.5,30.07,SE,126,1.0,8.0,75,0.00,,,0.00,Wunderground v.1.15,2013-01-15 15:41:00,
2013-01-15 06:47:00,27.3,20.7,30.08,SSW,207,1.0,8.0,76,0.00,,,0.00,Wunderground v.1.15,2013-01-15 15:47:00,
2013-01-15 06:53:00,27.2,20.6,30.08,SSW,213,0.0,8.0,76,0.00,,,0.00,Wunderground v.1.15,2013-01-15 15:53:00,
2013-01-15 06:59:00,27.2,20.6,30.08,SW,229,0.0,8.0,76,0.00,,,0.00,Wunderground v.1.15,2013-01-15 15:59:00,
2013-01-15 07:04:00,27.1,20.5,30.08,SW,229,1.0,1.0,76,0.00,,,0.00,Wunderground v.1.15,2013-01-15 16:04:00,
2013-01-15 07:10:00,27.1,20.5,30.09,SW,229,1.0,1.0,76,0.00,,,0.00,Wunderground v.1.15,2013-01-15 16:10:00,
2013-01-15 07:16:00,27.0,20.7,30.09,SW,229,0.0,1.0,77,0.00,,,0.00,Wunderground v.1.15,2013-01-15 16:16:00,
2013-01-15 07:22:00,26.8,20.9,30.09,SW,229,0.0,0.0,78,0.00,,,0.00,Wunderground v.1.15,2013-01-15 16:22:00,
2013-01-15 07:28:00,26.6,21.0,30.09,SW,229,0.0,1.0,79,0.00,,,0.00,Wunderground v.1.15,2013-01-15 16:28:00,
2013-01-15 07:34:00,26.4,21.1,30.09,SW,229,0.0,4.0,80,0.00,,,0.00,Wunderground v.1.15,2013-01-15 16:34:00,
2013-01-15 07:40:00,26.4,20.8,30.09,SW,229,0.0,4.0,79,0.00,,,0.00,Wunderground v.1.15,2013-01-15 16:40:00,
2013-01-15 07:45:00,26.3,21.0,30.10,SW,229,0.0,4.0,80,0.00,,,0.00,Wunderground v.1.15,2013-01-15 16:45:00,
2013-01-15 07:51:00,26.3,21.0,30.10,SW,229,0.0,4.0,80,0.00,,,0.00,Wunderground v.1.15,2013-01-15 16:51:00,
2013-01-15 07:57:00,26.2,21.2,30.10,SW,229,0.0,4.0,81,0.00,,,0.00,Wunderground v.1.15,2013-01-15 16:57:00,
2013-01-15 08:02:00,26.1,21.4,30.10,SW,229,0.0,0.0,82,0.00,,,0.00,Wunderground v.1.15,2013-01-15 17:02:00,
2013-01-15 08:08:00,26.0,21.3,30.10,SW,229,0.0,0.0,82,0.00,,,0.00,Wunderground v.1.15,2013-01-15 17:08:00,
2013-01-15 08:14:00,25.9,21.4,30.11,SW,229,0.0,0.0,83,0.00,,,0.00,Wunderground v.1.15,2013-01-15 17:14:00,
2013-01-15 08:20:00,25.9,21.4,30.11,SW,229,0.0,0.0,83,0.00,,,0.00,Wunderground v.1.15,2013-01-15 17:20:00,
2013-01-15 08:26:00,25.8,21.3,30.11,SW,229,0.0,0.0,83,0.00,,,0.00,Wunderground v.1.15,2013-01-15 17:26:00,
2013-01-15 08:32:00,25.8,21.3,30.12,SW,229,0.0,2.0,83,0.00,,,0.00,Wunderground v.1.15,2013-01-15 17:32:00,
2013-01-15 08:38:00,25.7,21.3,30.12,SSW,200,1.0,2.0,83,0.00,,,0.00,Wunderground v.1.15,2013-01-15 17:38:00,
2013-01-15 08:44:00,25.7,21.5,30.12,SSW,200,1.0,2.0,84,0.00,,,0.00,Wunderground v.1.15,2013-01-15 17:44:00,
2013-01-15 08:49:00,25.7,21.5,30.12,SW,219,0.0,2.0,84,0.00,,,0.00,Wunderground v.1.15,2013-01-15 17:49:00,
2013-01-15 08:55:00,25.7,21.5,30.13,SW,219,0.0,2.0,84,0.00,,,0.00,Wunderground v.1.15,2013-01-15 17:55:00,
2013-01-15 09:00:00,25.7,21.5,30.13,SW,219,0.0,0.0,84,0.00,,,0.00,Wunderground v.1.15,2013-01-15 18:00:00,
2013-01-15 09:06:00,25.8,21.6,30.13,South,176,0.0,1.0,84,0.00,,,0.00,Wunderground v.1.15,2013-01-15 18:06:00,
2013-01-15 09:12:00,25.8,21.6,30.14,South,176,0.0,0.0,84,0.00,,,0.00,Wunderground v.1.15,2013-01-15 18:12:00,
2013-01-15 09:18:00,25.8,21.6,30.14,South,176,0.0,1.0,84,0.00,,,0.00,Wunderground v.1.15,2013-01-15 18:18:00,
2013-01-15 09:23:00,25.8,21.6,30.14,SSW,194,0.0,1.0,84,0.00,,,0.00,Wunderground v.1.15,2013-01-15 18:23:00,
2013-01-15 09:29:00,25.8,21.6,30.14,South,188,0.0,1.0,84,0.00,,,0.00,Wunderground v.1.15,2013-01-15 18:29:00,
2013-01-15 09:35:00,25.7,21.5,30.14,South,188,1.0,1.0,84,0.00,,,0.00,Wunderground v.1.15,2013-01-15 18:35:00,
2013-01-15 09:41:00,25.7,21.5,30.14,South,188,1.0,1.0,84,0.00,,,0.00,Wunderground v.1.15,2013-01-15 18:41:00,
2013-01-15 09:47:00,25.5,21.3,30.15,South,187,0.0,1.0,84,0.00,,,0.00,Wunderground v.1.15,2013-01-15 18:47:00,
2013-01-15 09:53:00,25.5,21.3,30.15,South,174,1.0,2.0,84,0.00,,,0.00,Wunderground v.1.15,2013-01-15 18:53:00,
2013-01-15 09:59:00,25.5,21.3,30.15,South,172,1.0,2.0,84,0.00,,,0.00,Wunderground v.1.15,2013-01-15 18:59:00,
2013-01-15 10:05:00,25.5,21.3,30.15,South,171,0.0,1.0,84,0.00,,,0.00,Wunderground v.1.15,2013-01-15 19:05:00,
2013-01-15 10:11:00,25.5,21.1,30.15,South,172,0.0,0.0,83,0.00,,,0.00,Wunderground v.1.15,2013-01-15 19:11:00,
2013-01-15 10:17:00,25.5,21.1,30.15,South,172,0.0,0.0,83,0.00,,,0.00,Wunderground v.1.15,2013-01-15 19:17:00,
2013-01-15 10:23:00,25.5,21.1,30.15,South,171,0.0,0.0,83,0.00,,,0.00,Wunderground v.1.15,2013-01-15 19:23:00,
2013-01-15 10:28:00,25.4,21.0,30.16,South,171,0.0,0.0,83,0.00,,,0.00,Wunderground v.1.15,2013-01-15 19:28:00,
2013-01-15 10:34:00,25.5,21.1,30.16,South,172,0.0,2.0,83,0.00,,,0.00,Wunderground v.1.15,2013-01-15 19:34:00,
2013-01-15 10:40:00,25.4,21.2,30.16,South,172,0.0,2.0,84,0.00,,,0.00,Wunderground v.1.15,2013-01-15 19:40:00,
2013-01-15 10:46:00,25.3,20.9,30.16,South,172,0.0,2.0,83,0.00,,,0.00,Wunderground v.1.15,2013-01-15 19:46:00,
2013-01-15 10:52:00,25.1,20.7,30.16,South,172,0.0,2.0,83,0.00,,,0.00,Wunderground v.1.15,2013-01-15 19:52:00,
2013-01-15 10:58:00,25.0,20.8,30.16,South,172,0.0,2.0,84,0.00,,,0.00,Wunderground v.1.15,2013-01-15 19:58:00,
2013-01-15 11:03:00,24.9,20.8,30.16,South,172,0.0,0.0,84,0.00,,,0.00,Wunderground v.1.15,2013-01-15 20:03:00,
2013-01-15 11:09:00,24.8,20.9,30.17,South,172,0.0,0.0,85,0.00,,,0.00,Wunderground v.1.15,2013-01-15 20:09:00,
2013-01-15 11:15:00,24.8,20.9,30.17,South,172,0.0,1.0,85,0.00,,,0.00,Wunderground v.1.15,2013-01-15 20:15:00,
2013-01-15 11:21:00,24.8,20.9,30.17,South,172,0.0,0.0,85,0.00,,,0.00,Wunderground v.1.15,2013-01-15 20:21:00,
2013-01-15 11:27:00,24.8,20.9,30.17,South,172,0.0,0.0,85,0.00,,,0.00,Wunderground v.1.15,2013-01-15 20:27:00,
2013-01-15 11:32:00,24.9,21.0,30.18,South,172,0.0,1.0,85,0.00,,,0.00,Wunderground v.1.15,2013-01-15 20:32:00,
2013-01-15 11:38:00,25.1,21.2,30.18,South,172,0.0,1.0,85,0.00,,,0.00,Wunderground v.1.15,2013-01-15 20:38:00,
2013-01-15 11:43:00,25.5,21.6,30.18,SSW,192,0.0,1.0,85,0.00,,,0.00,Wunderground v.1.15,2013-01-15 20:43:00,
2013-01-15 11:48:00,25.9,21.4,30.18,East,84,0.0,1.0,83,0.00,,,0.00,Wunderground v.1.15,2013-01-15 20:48:00,
2013-01-15 11:54:00,27.3,22.2,30.18,SE,132,0.0,1.0,81,0.00,,,0.00,Wunderground v.1.15,2013-01-15 20:54:00,
2013-01-15 12:00:00,28.5,22.5,30.18,SE,132,0.0,1.0,78,0.00,,,0.00,Wunderground v.1.15,2013-01-15 21:00:00,
2013-01-15 12:06:00,28.9,22.6,30.18,SE,132,0.0,1.0,77,0.00,,,0.00,Wunderground v.1.15,2013-01-15 21:06:00,
2013-01-15 12:11:00,29.0,22.7,30.18,SE,132,0.0,0.0,77,0.00,,,0.00,Wunderground v.1.15,2013-01-15 21:11:00,
2013-01-15 12:16:00,29.2,22.9,30.18,SE,132,0.0,0.0,77,0.00,,,0.00,Wunderground v.1.15,2013-01-15 21:16:00,
2013-01-15 12:22:00,29.3,22.7,30.18,SE,132,0.0,0.0,76,0.00,,,0.00,Wunderground v.1.15,2013-01-15 21:22:00,
2013-01-15 12:28:00,29.3,22.7,30.18,South,186,0.0,1.0,76,0.00,,,0.00,Wunderground v.1.15,2013-01-15 21:28:00,
2013-01-15 12:33:00,29.5,22.2,30.18,ESE,121,0.0,1.0,74,0.00,,,0.00,Wunderground v.1.15,2013-01-15 21:33:00,
2013-01-15 12:39:00,29.6,22.3,30.18,ESE,121,0.0,1.0,74,0.00,,,0.00,Wunderground v.1.15,2013-01-15 21:39:00,
2013-01-15 12:45:00,29.8,22.2,30.18,ESE,121,0.0,1.0,73,0.00,,,0.00,Wunderground v.1.15,2013-01-15 21:45:00,
2013-01-15 12:50:00,30.1,22.2,30.18,ESE,117,0.0,1.0,72,0.00,,,0.00,Wunderground v.1.15,2013-01-15 21:50:00,
2013-01-15 12:56:00,30.5,22.2,30.18,East,91,0.0,2.0,71,0.00,,,0.00,Wunderground v.1.15,2013-01-15 21:56:00,
2013-01-15 13:02:00,30.5,22.5,30.18,East,91,0.0,1.0,72,0.00,,,0.00,Wunderground v.1.15,2013-01-15 22:02:00,
2013-01-15 13:07:00,30.4,22.4,30.18,ENE,76,0.0,1.0,72,0.00,,,0.00,Wunderground v.1.15,2013-01-15 22:07:00,
2013-01-15 13:13:00,30.6,22.3,30.18,East,96,0.0,1.0,71,0.00,,,0.00,Wunderground v.1.15,2013-01-15 22:13:00,
2013-01-15 13:19:00,30.6,22.3,30.18,East,96,0.0,1.0,71,0.00,,,0.00,Wunderground v.1.15,2013-01-15 22:19:00,
2013-01-15 13:25:00,30.6,22.3,30.18,East,96,0.0,1.0,71,0.00,,,0.00,Wunderground v.1.15,2013-01-15 22:25:00,
2013-01-15 13:30:00,30.4,22.1,30.18,East,96,0.0,0.0,71,0.00,,,0.00,Wunderground v.1.15,2013-01-15 22:30:00,
2013-01-15 13:36:00,30.5,22.2,30.18,SSE,155,0.0,2.0,71,0.00,,,0.00,Wunderground v.1.15,2013-01-15 22:36:00,
2013-01-15 13:42:00,30.3,22.0,30.18,SSE,155,0.0,2.0,71,0.00,,,0.00,Wunderground v.1.15,2013-01-15 22:42:00,
2013-01-15 13:48:00,30.3,22.0,30.18,SSW,205,0.0,2.0,71,0.00,,,0.00,Wunderground v.1.15,2013-01-15 22:48:00,
2013-01-15 13:54:00,30.1,22.2,30.18,SSW,205,0.0,2.0,72,0.00,,,0.00,Wunderground v.1.15,2013-01-15 22:54:00,
2013-01-15 14:00:00,29.8,22.5,30.18,SSW,205,0.0,0.0,74,0.00,,,0.00,Wunderground v.1.15,2013-01-15 23:00:00,
2013-01-15 14:05:00,29.7,22.4,30.18,SSW,205,0.0,0.0,74,0.00,,,0.00,Wunderground v.1.15,2013-01-15 23:05:00,
2013-01-15 14:11:00,29.6,22.3,30.18,SSW,205,0.0,0.0,74,0.00,,,0.00,Wunderground v.1.15,2013-01-15 23:11:00,
2013-01-15 14:17:00,29.9,22.9,30.18,SSW,211,0.0,1.0,75,0.00,,,0.00,Wunderground v.1.15,2013-01-15 23:17:00,
2013-01-15 14:23:00,30.0,22.7,30.18,East,92,0.0,2.0,74,0.00,,,0.00,Wunderground v.1.15,2013-01-15 23:23:00,
2013-01-15 14:29:00,30.1,22.8,30.18,East,92,0.0,2.0,74,0.00,,,0.00,Wunderground v.1.15,2013-01-15 23:29:00,
2013-01-15 14:34:00,30.1,23.1,30.18,East,92,0.0,1.0,75,0.00,,,0.00,Wunderground v.1.15,2013-01-15 23:34:00,
2013-01-15 14:40:00,30.2,22.9,30.18,East,92,0.0,1.0,74,0.00,,,0.00,Wunderground v.1.15,2013-01-15 23:40:00,
2013-01-15 14:46:00,30.3,23.0,30.18,SSW,206,0.0,1.0,74,0.00,,,0.00,Wunderground v.1.15,2013-01-15 23:46:00,
2013-01-15 14:52:00,30.5,23.2,30.18,SSW,198,0.0,1.0,74,0.00,,,0.00,Wunderground v.1.15,2013-01-15 23:52:00,
2013-01-15 14:57:00,30.5,22.9,30.18,SW,223,0.0,2.0,73,0.00,,,0.00,Wunderground v.1.15,2013-01-15 23:57:00,
2013-01-15 15:03:00,30.6,23.3,30.18,SSE,157,1.0,1.0,74,0.00,,,0.00,Wunderground v.1.15,2013-01-16 00:03:00,
2013-01-15 15:09:00,30.5,23.2,30.18,SSE,158,0.0,1.0,74,0.00,,,0.00,Wunderground v.1.15,2013-01-16 00:09:00,
2013-01-15 15:15:00,30.6,23.3,30.18,SSE,158,0.0,1.0,74,0.00,,,0.00,Wunderground v.1.15,2013-01-16 00:15:00,
2013-01-15 15:21:00,30.7,23.1,30.19,SSE,148,0.0,0.0,73,0.00,,,0.00,Wunderground v.1.15,2013-01-16 00:21:00,
2013-01-15 15:27:00,30.6,23.3,30.19,SSE,148,0.0,0.0,74,0.00,,,0.00,Wunderground v.1.15,2013-01-16 00:27:00,
2013-01-15 15:33:00,30.7,23.1,30.19,SSE,151,0.0,2.0,73,0.00,,,0.00,Wunderground v.1.15,2013-01-16 00:33:00,
2013-01-15 15:39:00,30.7,23.1,30.19,SW,233,0.0,2.0,73,0.00,,,0.00,Wunderground v.1.15,2013-01-16 00:39:00,
2013-01-15 15:44:00,30.7,23.1,30.19,SW,233,0.0,2.0,73,0.00,,,0.00,Wunderground v.1.15,2013-01-16 00:44:00,
2013-01-15 15:50:00,30.6,23.0,30.19,SW,233,0.0,2.0,73,0.00,,,0.00,Wunderground v.1.15,2013-01-16 00:50:00,
2013-01-15 15:56:00,30.5,22.5,30.19,SW,233,0.0,2.0,72,0.00,,,0.00,Wunderground v.1.15,2013-01-16 00:56:00,
2013-01-15 16:02:00,30.4,22.8,30.20,SSE,148,0.0,1.0,73,0.00,,,0.00,Wunderground v.1.15,2013-01-16 01:02:00,
2013-01-15 16:08:00,30.3,22.7,30.20,SSE,148,0.0,1.0,73,0.00,,,0.00,Wunderground v.1.15,2013-01-16 01:08:00,
2013-01-15 16:14:00,30.1,22.5,30.20,SSE,148,0.0,1.0,73,0.00,,,0.00,Wunderground v.1.15,2013-01-16 01:14:00,
2013-01-15 16:20:00,29.9,22.3,30.20,SSE,148,0.0,0.0,73,0.00,,,0.00,Wunderground v.1.15,2013-01-16 01:20:00,
2013-01-15 16:26:00,29.7,21.8,30.20,SSE,148,0.0,1.0,72,0.00,,,0.00,Wunderground v.1.15,2013-01-16 01:26:00,
2013-01-15 16:31:00,29.6,22.0,30.20,SSE,148,0.0,2.0,73,0.00,,,0.00,Wunderground v.1.15,2013-01-16 01:31:00,
2013-01-15 16:37:00,29.4,21.8,30.20,SSE,148,0.0,2.0,73,0.00,,,0.00,Wunderground v.1.15,2013-01-16 01:37:00,
2013-01-15 16:43:00,29.3,21.7,30.20,SSE,148,0.0,2.0,73,0.00,,,0.00,Wunderground v.1.15,2013-01-16 01:43:00,
2013-01-15 16:49:00,29.2,21.6,30.20,SSE,148,0.0,2.0,73,0.00,,,0.00,Wunderground v.1.15,2013-01-16 01:49:00,
2013-01-15 16:55:00,29.1,21.8,30.19,SSE,148,0.0,2.0,74,0.00,,,0.00,Wunderground v.1.15,2013-01-16 01:55:00,
2013-01-15 17:00:00,29.0,21.7,30.20,SSE,148,0.0,0.0,74,0.00,,,0.00,Wunderground v.1.15,2013-01-16 02:00:00,
2013-01-15 17:06:00,28.9,22.0,30.20,SSE,148,0.0,1.0,75,0.00,,,0.00,Wunderground v.1.15,2013-01-16 02:06:00,
2013-01-15 17:11:00,28.9,22.3,30.20,SSE,148,0.0,0.0,76,0.00,,,0.00,Wunderground v.1.15,2013-01-16 02:11:00,
2013-01-15 17:17:00,28.8,22.2,30.20,SE,146,0.0,1.0,76,0.00,,,0.00,Wunderground v.1.15,2013-01-16 02:17:00,
2013-01-15 17:22:00,28.8,21.9,30.20,SE,146,0.0,0.0,75,0.00,,,0.00,Wunderground v.1.15,2013-01-16 02:22:00,
2013-01-15 17:28:00,28.8,21.9,30.20,SSE,166,0.0,2.0,75,0.00,,,0.00,Wunderground v.1.15,2013-01-16 02:28:00,
2013-01-15 17:34:00,28.7,21.8,30.20,SSE,166,0.0,1.0,75,0.00,,,0.00,Wunderground v.1.15,2013-01-16 02:34:00,
2013-01-15 17:40:00,28.7,21.8,30.20,SSE,150,0.0,1.0,75,0.00,,,0.00,Wunderground v.1.15,2013-01-16 02:40:00,
2013-01-15 17:45:00,28.7,21.5,30.20,SSE,150,0.0,1.0,74,0.00,,,0.00,Wunderground v.1.15,2013-01-16 02:45:00,
2013-01-15 17:51:00,28.6,21.4,30.20,SSE,155,0.0,1.0,74,0.00,,,0.00,Wunderground v.1.15,2013-01-16 02:51:00,
2013-01-15 17:57:00,28.5,21.6,30.20,SSE,155,0.0,1.0,75,0.00,,,0.00,Wunderground v.1.15,2013-01-16 02:57:00,
2013-01-15 18:03:00,28.4,21.5,30.20,SSE,155,0.0,0.0,75,0.00,,,0.00,Wunderground v.1.15,2013-01-16 03:03:00,
2013-01-15 18:09:00,28.4,21.5,30.20,SSE,155,0.0,0.0,75,0.00,,,0.00,Wunderground v.1.15,2013-01-16 03:09:00,
2013-01-15 18:15:00,28.3,21.4,30.21,SSE,155,0.0,0.0,75,0.00,,,0.00,Wunderground v.1.15,2013-01-16 03:15:00,
2013-01-15 18:20:00,28.3,21.7,30.20,SSE,155,0.0,0.0,76,0.00,,,0.00,Wunderground v.1.15,2013-01-16 03:20:00,
2013-01-15 18:25:00,28.1,21.2,30.21,SSE,155,0.0,1.0,75,0.00,,,0.00,Wunderground v.1.15,2013-01-16 03:25:00,
2013-01-15 18:31:00,27.9,21.3,30.21,SSE,155,0.0,2.0,76,0.00,,,0.00,Wunderground v.1.15,2013-01-16 03:31:00,
2013-01-15 18:36:00,27.7,21.1,30.21,SSE,155,1.0,2.0,76,0.00,,,0.00,Wunderground v.1.15,2013-01-16 03:36:00,
2013-01-15 18:42:00,27.5,21.2,30.21,SSE,155,1.0,2.0,77,0.00,,,0.00,Wunderground v.1.15,2013-01-16 03:42:00,
2013-01-15 18:48:00,27.4,21.1,30.21,SSE,155,1.0,2.0,77,0.00,,,0.00,Wunderground v.1.15,2013-01-16 03:48:00,
2013-01-15 18:54:00,27.2,21.2,30.21,SSE,155,1.0,2.0,78,0.00,,,0.00,Wunderground v.1.15,2013-01-16 03:54:00,
2013-01-15 19:00:00,27.0,21.1,30.21,SSE,155,0.0,0.0,78,0.00,,,0.00,Wunderground v.1.15,2013-01-16 04:00:00,
2013-01-15 19:06:00,26.9,21.3,30.21,SSE,155,1.0,1.0,79,0.00,,,0.00,Wunderground v.1.15,2013-01-16 04:06:00,
2013-01-15 19:11:00,26.8,21.2,30.21,SSE,155,0.0,1.0,79,0.00,,,0.00,Wunderground v.1.15,2013-01-16 04:11:00,
2013-01-15 19:17:00,26.7,21.4,30.21,SSE,155,0.0,1.0,80,0.00,,,0.00,Wunderground v.1.15,2013-01-16 04:17:00,
2013-01-15 19:23:00,26.5,21.2,30.21,SSE,155,1.0,1.0,80,0.00,,,0.00,Wunderground v.1.15,2013-01-16 04:23:00,
2013-01-15 19:28:00,26.3,21.0,30.21,SSE,155,1.0,1.0,80,0.00,,,0.00,Wunderground v.1.15,2013-01-16 04:28:00,
2013-01-15 19:34:00,26.1,21.4,30.21,SSE,155,0.0,1.0,82,0.00,,,0.00,Wunderground v.1.15,2013-01-16 04:34:00,
2013-01-15 19:40:00,25.9,21.2,30.21,SSE,155,1.0,1.0,82,0.00,,,0.00,Wunderground v.1.15,2013-01-16 04:40:00,
2013-01-15 19:46:00,25.8,21.1,30.21,SSE,155,1.0,1.0,82,0.00,,,0.00,Wunderground v.1.15,2013-01-16 04:46:00,
2013-01-15 19:52:00,25.6,20.9,30.21,SSE,155,1.0,1.0,82,0.00,,,0.00,Wunderground v.1.15,2013-01-16 04:52:00,
2013-01-15 19:58:00,25.5,21.1,30.21,SSE,155,1.0,1.0,83,0.00,,,0.00,Wunderground v.1.15,2013-01-16 04:58:00,
2013-01-15 20:02:00,25.4,21.0,30.21,SSE,155,1.0,1.0,83,0.00,,,0.00,Wunderground v.1.15,2013-01-16 05:02:00,
2013-01-15 20:04:00,25.3,21.1,30.21,SSE,155,1.0,1.0,84,0.00,,,0.00,Wunderground v.1.15,2013-01-16 05:04:00,
2013-01-15 20:05:00,25.3,20.9,30.21,SSE,155,1.0,1.0,83,0.00,,,0.00,Wunderground v.1.15,2013-01-16 05:05:00,
2013-01-15 20:06:00,25.3,21.1,30.21,SSE,155,1.0,1.0,84,0.00,,,0.00,Wunderground v.1.15,2013-01-16 05:06:00,
2013-01-15 20:12:00,25.1,20.9,30.21,SSE,155,1.0,1.0,84,0.00,,,0.00,Wunderground v.1.15,2013-01-16 05:12:00,
2013-01-15 20:18:00,25.1,21.2,30.21,SSE,155,0.0,1.0,85,0.00,,,0.00,Wunderground v.1.15,2013-01-16 05:18:00,
2013-01-15 20:23:00,25.0,21.1,30.21,SSE,155,1.0,1.0,85,0.00,,,0.00,Wunderground v.1.15,2013-01-16 05:23:00,
2013-01-15 20:29:00,25.0,21.1,30.21,SSE,155,1.0,1.0,85,0.00,,,0.00,Wunderground v.1.15,2013-01-16 05:29:00,
2013-01-15 20:35:00,25.0,21.1,30.21,SSE,155,1.0,2.0,85,0.00,,,0.00,Wunderground v.1.15,2013-01-16 05:35:00,
2013-01-15 20:40:00,25.0,21.1,30.21,SSE,155,1.0,1.0,85,0.00,,,0.00,Wunderground v.1.15,2013-01-16 05:40:00,
2013-01-15 20:46:00,24.9,21.3,30.21,SSE,155,1.0,1.0,86,0.00,,,0.00,Wunderground v.1.15,2013-01-16 05:46:00,
2013-01-15 20:52:00,24.8,21.2,30.21,SSE,155,1.0,1.0,86,0.00,,,0.00,Wunderground v.1.15,2013-01-16 05:52:00,
2013-01-15 20:57:00,24.8,21.2,30.21,SSE,155,1.0,1.0,86,0.00,,,0.00,Wunderground v.1.15,2013-01-16 05:57:00,
2013-01-15 21:03:00,24.8,21.5,30.21,SSE,155,1.0,1.0,87,0.00,,,0.00,Wunderground v.1.15,2013-01-16 06:03:00,
2013-01-15 21:09:00,24.8,21.5,30.21,SSE,155,0.0,1.0,87,0.00,,,0.00,Wunderground v.1.15,2013-01-16 06:09:00,
2013-01-15 21:15:00,24.9,21.8,30.21,SSE,154,0.0,1.0,88,0.00,,,0.00,Wunderground v.1.15,2013-01-16 06:15:00,
2013-01-15 21:21:00,24.9,21.8,30.20,SSE,154,0.0,1.0,88,0.00,,,0.00,Wunderground v.1.15,2013-01-16 06:21:00,
2013-01-15 21:27:00,25.1,22.0,30.20,SSE,154,0.0,1.0,88,0.00,,,0.00,Wunderground v.1.15,2013-01-16 06:27:00,
2013-01-15 21:32:00,25.1,22.0,30.20,SSE,154,0.0,2.0,88,0.00,,,0.00,Wunderground v.1.15,2013-01-16 06:32:00,
2013-01-15 21:38:00,25.3,22.2,30.20,SSE,154,0.0,2.0,88,0.00,,,0.00,Wunderground v.1.15,2013-01-16 06:38:00,
2013-01-15 21:44:00,25.3,22.2,30.20,SSE,154,1.0,2.0,88,0.00,,,0.00,Wunderground v.1.15,2013-01-16 06:44:00,
2013-01-15 21:50:00,25.4,22.3,30.20,SSE,154,1.0,1.0,88,0.00,,,0.00,Wunderground v.1.15,2013-01-16 06:50:00,
2013-01-15 21:56:00,25.5,22.4,30.19,SSE,154,0.0,2.0,88,0.00,,,0.00,Wunderground v.1.15,2013-01-16 06:56:00,
2013-01-15 22:02:00,25.5,22.4,30.19,SSE,154,0.0,0.0,88,0.00,,,0.00,Wunderground v.1.15,2013-01-16 07:02:00,
2013-01-15 22:08:00,25.5,22.4,30.19,SSE,154,0.0,1.0,88,0.00,,,0.00,Wunderground v.1.15,2013-01-16 07:08:00,
2013-01-15 22:14:00,25.5,22.4,30.19,SSE,154,0.0,1.0,88,0.00,,,0.00,Wunderground v.1.15,2013-01-16 07:14:00,
2013-01-15 22:20:00,25.5,22.4,30.19,SSE,154,0.0,1.0,88,0.00,,,0.00,Wunderground v.1.15,2013-01-16 07:20:00,
2013-01-15 22:26:00,25.5,22.7,30.19,SSE,154,0.0,1.0,89,0.00,,,0.00,Wunderground v.1.15,2013-01-16 07:26:00,
2013-01-15 22:32:00,25.5,22.7,30.18,SSE,154,0.0,1.0,89,0.00,,,0.00,Wunderground v.1.15,2013-01-16 07:32:00,
2013-01-15 22:37:00,25.5,22.7,30.18,SSE,154,0.0,1.0,89,0.00,,,0.00,Wunderground v.1.15,2013-01-16 07:37:00,
2013-01-15 22:43:00,25.6,22.5,30.18,SSE,154,0.0,1.0,88,0.00,,,0.00,Wunderground v.1.15,2013-01-16 07:43:00,
2013-01-15 22:49:00,25.6,22.8,30.18,SSE,154,0.0,1.0,89,0.00,,,0.00,Wunderground v.1.15,2013-01-16 07:49:00,
2013-01-15 22:55:00,25.7,22.9,30.18,SSE,154,0.0,1.0,89,0.00,,,0.00,Wunderground v.1.15,2013-01-16 07:55:00,
2013-01-15 23:00:00,25.7,22.9,30.18,SSE,154,0.0,1.0,89,0.00,,,0.00,Wunderground v.1.15,2013-01-16 08:00:00,
2013-01-15 23:05:00,25.7,22.9,30.18,SSE,154,1.0,1.0,89,0.00,,,0.00,Wunderground v.1.15,2013-01-16 08:05:00,
2013-01-15 23:11:00,25.8,23.0,30.18,SE,129,1.0,2.0,89,0.00,,,0.00,Wunderground v.1.15,2013-01-16 08:11:00,
2013-01-15 23:17:00,25.9,23.1,30.18,SE,129,1.0,2.0,89,0.00,,,0.00,Wunderground v.1.15,2013-01-16 08:17:00,
2013-01-15 23:23:00,26.0,23.2,30.18,SE,129,1.0,1.0,89,0.00,,,0.00,Wunderground v.1.15,2013-01-16 08:23:00,
2013-01-15 23:28:00,26.1,23.0,30.18,SE,129,1.0,2.0,88,0.00,,,0.00,Wunderground v.1.15,2013-01-16 08:28:00,
2013-01-15 23:34:00,26.2,23.1,30.18,SE,129,1.0,2.0,88,0.00,,,0.00,Wunderground v.1.15,2013-01-16 08:34:00,
2013-01-15 23:40:00,26.3,23.2,30.18,SE,129,1.0,1.0,88,0.00,,,0.00,Wunderground v.1.15,2013-01-16 08:40:00,
2013-01-15 23:46:00,26.3,23.2,30.18,SE,129,1.0,1.0,88,0.00,,,0.00,Wunderground v.1.15,2013-01-16 08:46:00,
2013-01-15 23:51:00,26.4,23.3,30.17,SE,129,1.0,2.0,88,0.00,,,0.00,Wunderground v.1.15,2013-01-16 08:51:00,
2013-01-15 23:57:00,26.4,23.3,30.18,SE,129,1.0,2.0,88,0.00,,,0.00,Wunderground v.1.15,2013-01-16 08:57:00,